CST,Max TemperatureF,Mean TemperatureF,Min TemperatureF,Max Dew PointF,MeanDew PointF,Min DewpointF,Max Humidity, Mean Humidity, Min Humidity, Max Sea Level PressureIn, Mean Sea Level PressureIn, Min Sea Level PressureIn, Max VisibilityMiles, Mean VisibilityMiles, Min VisibilityMiles, Max Wind SpeedMPH, Mean Wind SpeedMPH, Max Gust SpeedMPH,PrecipitationIn, CloudCover, Events, WindDirDegrees
2012-1-1,53,43,32,41,26,12,77,54,30,30.29,30.04,29.74,10,10,10,35,21,41,T,3,Rain,273
2012-1-2,34,27,20,18,15,10,74,61,47,30.45,30.32,30.23,10,6,0,32,19,40,T,8,Snow,312
2012-1-3,31,23,15,14,10,7,67,53,39,30.55,30.41,30.23,10,10,10,20,9,25,0.00,0,,241
2012-1-4,46,35,24,27,21,13,75,57,38,30.22,30.12,30.03,10,10,10,17,9,23,0.00,0,,231
2012-1-5,57,41,25,32,28,21,88,63,38,30.17,30.05,29.93,10,10,6,20,9,23,0.00,0,,198
2012-1-6,62,49,35,43,33,29,77,56,34,29.93,29.86,29.80,10,10,9,23,11,25,0.00,0,,207
2012-1-7,53,44,34,36,29,25,83,59,35,30.24,30.09,29.86,10,10,10,14,8,17,0.00,0,,320
2012-1-8,48,38,27,30,27,24,85,65,45,30.35,30.29,30.25,10,9,6,13,7,16,0.00,3,,43
2012-1-9,51,40,29,28,24,19,78,53,28,30.25,30.18,30.13,10,10,6,9,4,12,0.00,1,,310
2012-1-10,56,41,26,30,27,22,85,60,35,30.14,30.01,29.78,10,8,5,12,4,13,0.00,0,,141
2012-1-11,45,43,41,43,40,30,96,77,57,29.74,29.56,29.46,9,3,1,14,6,16,0.73,8,Rain,11
2012-1-12,45,31,16,41,16,8,89,76,62,29.86,29.71,29.55,10,4,0,28,18,38,0.00,8,Snow,280
2012-1-13,21,18,14,11,9,6,80,71,61,30.19,30.02,29.85,10,7,2,23,12,30,0.00,7,Snow,260
2012-1-14,31,21,11,20,15,6,84,69,53,30.34,30.20,30.08,10,7,4,13,7,15,0.00,5,,19
2012-1-15,38,29,19,25,21,14,84,72,59,30.47,30.35,30.16,10,8,5,18,9,22,0.00,2,,161
2012-1-16,60,46,31,54,39,24,89,74,59,30.14,29.96,29.81,10,10,9,24,14,32,T,5,Rain,184
2012-1-17,61,43,25,55,40,15,86,75,63,30.32,29.88,29.64,10,8,1,44,21,55,0.66,7,Rain-Thunderstorm,272
2012-1-18,31,26,21,22,16,12,75,66,57,30.38,30.26,30.08,10,10,9,17,7,29,0.00,4,,233
2012-1-19,39,28,17,25,20,9,81,67,52,30.19,30.04,29.96,10,10,9,22,11,26,0.00,4,,316
2012-1-20,32,25,17,27,21,8,85,74,62,30.21,29.98,29.86,9,5,2,16,11,20,0.11,6,Rain,48
2012-1-21,29,27,24,24,22,19,92,87,81,30.22,30.15,29.97,8,6,2,18,11,23,T,8,,46
2012-1-22,59,43,27,56,40,24,100,93,85,30.14,29.84,29.54,7,2,0,43,14,54,0.67,8,Fog-Rain-Thunderstorm,155
2012-1-23,54,44,34,52,36,26,89,73,57,30.06,29.80,29.53,10,7,3,30,13,37,0.19,7,Rain-Thunderstorm,250
2012-1-24,39,33,27,27,25,23,85,72,59,30.40,30.28,30.09,10,9,6,12,6,15,0.00,3,,332
2012-1-25,37,33,28,33,29,24,89,82,75,30.36,30.20,30.01,6,4,2,15,6,17,0.17,6,Rain,62
2012-1-26,41,38,35,38,35,33,92,89,85,30.00,29.80,29.63,10,3,0,18,9,23,0.80,8,Fog-Rain,357
2012-1-27,41,37,32,36,31,27,92,78,64,30.07,29.94,29.74,7,5,2,22,9,25,0.00,6,,267
2012-1-28,41,35,29,34,26,15,92,65,37,30.34,30.16,29.97,10,8,2,31,13,38,0.06,4,Rain,252
2012-1-29,45,35,25,23,20,15,84,59,33,30.31,30.25,30.19,10,10,10,25,12,31,0.00,0,,244
2012-1-30,58,42,25,34,29,21,81,59,36,30.27,30.15,30.07,10,10,10,24,12,30,0.00,2,,174
2012-1-31,57,51,44,50,41,29,89,65,41,30.10,30.05,30.00,10,10,10,25,16,31,0.00,7,,198